User: anonymous
Location: Cranbrook Institute of Science
(42.5830°N, 83.2450°W)
Time: 09:57:32
(UTC-04:00)
Language:

ATLAS 5 CENTAUR R/B - Orbit

View from above orbital plane
View from above orbital plane
View from above satellite
View from above satellite

Ground track
Ground track

The orbit data is extracted from the following two-line orbital elements,

1 31702U 07027B   14105.81588722 0.00000600  00000-0  26590-3 0    05
2 31702  63.3790 354.6401 0136000 347.0972  12.9028 14.18113425    00
Epoch (UTC): 15 April 2014 19:34:52
Eccentricity: 0.0136000
inclination: 63.3790°
perigee height: 733 km
apogee height: 930 km
right ascension of ascending node: 354.6401°
argument of perigee: 347.0972°
revolutions per day: 14.18113425
mean anomaly at epoch: 12.9028°
orbit number at epoch: 0

The dashed part of the orbit path shows where the satellite is in the earth's shadow,  

DLR